www.pogodaiklimat.ru

Погода и климат >> Архив погоды >> Испания >> Сеута


ПОГОДА в Сеуте

  • Прогноз погоды в Сеуте
  • Монитор погоды в Сеуте

АРХИВ ПОГОДЫ в Сеуте

Время (UTC), дата Ветер
(напр.,м/с)
 
Видим.   Явления Облачность Т
(С)
Тd
(С)
f
(%)
Тe
(С)
Тes
(С)
Комфортность P
(гПа)
Po
(гПа)
Тmin
(С)
Tmax
(С)
R
(мм)
R24
(мм)
S
(см)
22 11.09 ЮЗ 2 20 км н/о +22.1 +7.1 38 +23 +23 комфорт 1019.1 1008.8
23 11.09 В 3 20 км н/о +21.8 +10.0 47 +23 +23 комфорт 1019.3 1009.0
00 12.09 СВ 2 20 км н/о +20.5 +11.1 55 +23 +23 комфорт 1020.0 1009.7
01 12.09 В 7 20 км н/о +20.3 +15.9 76 +23 +23 комфорт 1019.8 1009.5
02 12.09 ЮЗ 4 20 км н/о +19.4 +16.1 81 +21 +21 комфорт 1019.9 1009.6
03 12.09 Ю 7 20 км н/о +19.5 +15.6 78 +21 +21 комфорт 1019.3 1009.0
04 12.09 Ю 4 20 км н/о +19.0 +15.1 78 +20 +20 1019.2 1008.8
05 12.09 ЮЗ 3 20 км н/о +18.5 +15.6 83 +19 +19 1019.3 1008.9
06 12.09 Ю 4 20 км [макс. диам. градин 0 мм] 8/5 600 м
[Cu Sc Ac cuf Ci fib]
+18.9 +15.6 81 +20 +20 1019.4 1009.0 +18.5
07 12.09 Ю 3 20 км н/о +19.1 +16.1 83 +21 +21 комфорт 1019.9 1009.5
08 12.09 ЮВ 5 20 км н/о +20.0 +15.8 77 +22 +22 комфорт 1020.6 1010.3
09 12.09 ЮВ 5 20 км [макс. диам. градин 0 мм] 8/5 600 м
[Cu Sc Ac cuf Ci fib]
+21.4 +16.6 74 +25 +26 комфорт 1021.0 1010.7
10 12.09 ЮВ 6 20 км н/о +20.1 +16.5 80 +23 +23 комфорт 1021.7 1011.4
11 12.09 В 6 20 км н/о +20.3 +15.3 73 +23 +23 комфорт 1021.7 1011.4
12 12.09 В 8 20 км [макс. диам. градин 0 мм] 8/4 1000 м
[Cu Sc Ac cuf Ci fib]
+22.6 +14.4 60 +26 +27 жарко 1021.5 1011.2
13 12.09 В 9 20 км н/о +22.4 +15.5 65 +26 +26 жарко 1021.4 1011.1
14 12.09 В 10 17 км н/о +22.1 +15.9 68 +26 +26 душно 1021.3 1011.0
15 12.09 В 10 17 км н/о +22.2 +16.0 68 +26 +26 душно 1021.1 1010.8
16 12.09 В 11 16 км н/о +21.7 +16.0 70 +25 +25 комфорт 1021.1 1010.8
17 12.09 В 7 20 км н/о +20.9 +16.7 77 +24 +24 комфорт 1021.0 1010.7
18 12.09 ЮВ 5 20 км н/о +19.8 +17.4 86 +22 +22 комфорт 1020.8 1010.5 +23.1
19 12.09 Ю 3 20 км н/о +19.3 +17.3 88 +21 +21 комфорт 1020.5 1010.1
20 12.09 Ю 3 20 км н/о +19.1 +17.1 88 +21 +21 комфорт 1021.4 1011.0
21 12.09 ЮЗ 2 20 км н/о +18.6 +16.7 89 +20 +20 1021.9 1011.5
22 12.09 Ю 4 20 км н/о +19.0 +16.6 86 +20 +20 1021.7 1011.3
23 12.09 Ю 3 20 км н/о +19.1 +16.9 87 +21 +21 комфорт 1020.9 1010.5
00 13.09 Ю 2 20 км н/о +18.9 +17.0 89 +21 +21 комфорт 1020.4 1010.0
01 13.09 ЮВ 1 19 км н/о +18.7 +17.2 91 +21 +21 комфорт 1019.9 1009.5
02 13.09 В 2 13 км н/о +18.3 +17.3 94 +19 +19 1019.1 1008.7
03 13.09 В 5 20 км н/о +19.0 +17.5 91 +20 +20 1018.7 1008.4
04 13.09 В 6 20 км н/о +19.4 +17.5 89 +21 +21 комфорт 1018.2 1007.9
05 13.09 СВ 5 18 км н/о +19.2 +17.9 92 +21 +21 комфорт 1017.8 1007.5
06 13.09 СВ 5 16 км [макс. диам. градин 0 мм] 9/8 1000 м
[Cu Sc Ac cuf Ci fib]
+18.9 +17.9 94 +20 +20 1018.7 1008.4 +18.3
07 13.09 В 7 20 км н/о +19.8 +18.1 90 +22 +22 комфорт 1018.5 1008.2
08 13.09 ЮВ 5 19 км н/о +20.3 +18.6 90 +24 +24 комфорт 1018.5 1008.2
09 13.09 ЮВ 6 18 км [макс. диам. градин 0 мм] 9/6 1000 м
[Cu Sc Ac cuf Ci fib]
+20.6 +18.9 90 +24 +25 комфорт 1018.6 1008.3
10 13.09 ЮВ 6 17 км н/о +20.3 +19.1 93 +24 +24 комфорт 1019.0 1008.7
11 13.09 В 6 19 км н/о +21.4 +19.3 88 +26 +26 душно 1018.9 1008.6
12 13.09 В 7 19 км [макс. диам. градин 0 мм] 9/6 1000 м
[Cu Sc Ac cuf Ci fib]
+23.4 +19.1 77 +30 +31 очень
душно
1018.7 1008.5
13 13.09 ЮВ 6 20 км н/о +22.8 +19.0 79 +29 +29 очень
душно
1018.4 1008.2
14 13.09 ЮВ 4 20 км н/о +22.4 +19.4 83 +28 +28 душно 1018.3 1008.1
15 13.09 ЮВ 5 19 км н/о +21.9 +19.3 85 +27 +27 душно 1018.0 1007.8
16 13.09 ЮВ 6 18 км н/о +21.8 +19.2 85 +27 +27 душно 1017.6 1007.4
17 13.09 В 4 19 км н/о +21.7 +19.1 85 +27 +27 душно 1018.1 1007.9
18 13.09 В 4 20 км н/о +21.3 +18.7 85 +26 +26 душно 1018.3 1008.0 +23.4
19 13.09 В 4 20 км н/о +21.3 +18.5 84 +26 +26 душно 1018.3 1008.0
20 13.09 В 3 18 км н/о +21.4 +19.1 87 +26 +26 душно 1018.8 1008.5
21 13.09 В 5 15 км н/о +21.5 +19.8 90 +27 +27 душно 1019.2 1009.0
22 13.09 Ю 3 9000 м н/о +21.6 +20.4 93 +27 +27 душно 1019.1 1008.9
23 13.09 В 3 7000 м н/о +21.4 +20.6 95 +27 +27 душно 1019.0 1008.8
00 14.09 Ю 5 12 км н/о +21.6 +20.2 92 +27 +27 душно 1018.2 1008.0
01 14.09 ЮЗ 4 12 км н/о +21.4 +19.9 91 +26 +26 душно 1017.6 1007.4
02 14.09 Ю 3 7000 м н/о +21.2 +20.0 93 +26 +26 душно 1016.9 1006.7
03 14.09 Ю 3 12 км н/о +21.1 +19.9 93 +26 +26 душно 1016.8 1006.6
04 14.09 ЮВ 6 6000 м слаб. морось н/о +21.1 +20.3 95 +26 +26 душно 1016.9 1006.7 0.0
05 14.09 ЮВ 4 3300 м слаб. морось н/о +20.8 +20.3 97 +26 +26 душно 1016.8 1006.6 0.2
06 14.09 ЮВ 3 4700 м в посл. час морось н/о +20.8 +20.3 97 +26 +26 душно 1017.3 1007.0 +20.7 0.2
07 14.09 В 2 5000 м слаб. дождь н/о +20.9 +20.2 96 +27 +27 душно 1017.8 1007.5 0.2
08 14.09 В 5 4000 м дождь н/о +21.1 +20.6 97 +26 +26 душно 1018.0 1007.8 0.6
09 14.09 В 6 8000 м в посл. час морось {дождь} н/о +21.4 +20.2 93 +27 +27 душно 1018.5 1008.3 0.8
10 14.09 ЮВ 5 8000 м н/о +21.2 +20.0 93 +26 +26 душно 1018.4 1008.2
11 14.09 ЮВ 4 6000 м н/о +21.2 +20.0 93 +26 +26 душно 1018.4 1008.2
12 14.09 В 7 9000 м дымка н/о +21.9 +20.2 90 +28 +28 душно 1018.0 1007.8
13 14.09 В 6 9000 м н/о +22.0 +20.3 90 +28 +28 душно 1017.7 1007.5
14 14.09 ЮВ 6 9000 м н/о +22.5 +20.4 88 +29 +29 очень
душно
1017.3 1007.1
15 14.09 ЮВ 5 8000 м н/о +22.8 +20.5 87 +30 +30 очень
душно
1017.0 1006.8
16 14.09 Ю 5 8000 м н/о +22.5 +20.4 88 +29 +29 очень
душно
1016.9 1006.7
17 14.09 Ю 6 8000 м н/о +22.3 +20.4 89 +29 +29 очень
душно
1017.1 1006.9
18 14.09 Ю 4 7000 м дымка н/о +22.1 +20.6 91 +28 +28 душно 1017.2 1007.0 +22.8
19 14.09 Ю 4 6000 м н/о +21.9 +20.5 92 +28 +28 душно 1017.4 1007.2
20 14.09 Ю 4 н/о н/о +21.6 +20.6 94 +27 +27 душно 1018.0 1007.8
21 14.09 Ю 5 н/о н/о +21.8 +21.0 95 +28 +28 душно 1018.4 1008.2
22 14.09 Ю 3 н/о н/о +22.1 +21.1 94 +29 +29 очень
душно
1018.6 1008.4
23 14.09 Ю 4 3300 м н/о +21.8 +21.1 96 +28 +28 душно 1018.3 1008.1
00 15.09 Ю 2 700 м н/о +21.5 +21.0 97 +27 +27 душно 1018.0 1007.8
01 15.09 Ю 2 700 м н/о +21.6 +21.3 98 +28 +28 очень
душно
1017.7 1007.5
02 15.09 ЮВ 1 4900 м н/о +21.7 +21.4 98 +28 +28 душно 1017.4 1007.2
03 15.09 Ю 2 3400 м в посл. час морось н/о +21.6 +21.3 98 +28 +28 очень
душно
1017.3 1007.1 0.0
04 15.09 Ю 3 2300 м н/о +21.7 +21.4 98 +28 +28 душно 1017.2 1007.0
05 15.09 Ю 3 800 м слаб. морось н/о +21.7 +21.5 99 +28 +28 душно 1017.3 1007.1 0.0
06 15.09 ЮЗ 2 4000 м дымка н/о +21.8 +21.6 99 +28 +28 душно 1017.6 1007.4 +21.1 0.0
07 15.09 В 2 2900 м н/о +21.3 +20.8 97 +27 +27 душно 1017.7 1007.5
08 15.09 С 2 3500 м н/о +21.0 +20.7 98 +27 +27 душно 1018.0 1007.8
09 15.09 СВ 4 9000 м н/о +23.2 +20.9 87 +31 +31 очень
душно
1018.3 1008.1
10 15.09 СВ 4 11 км н/о +25.2 +20.7 76 +31 +31 очень
душно
1018.3 1008.2
11 15.09 СВ 6 13 км н/о +25.9 +20.5 72 +32 +32 очень
душно
1018.3 1008.2
12 15.09 С 6 14 км н/о +26.4 +20.0 68 +32 +32 очень
душно
1018.4 1008.3
13 15.09 С 8 14 км н/о +25.8 +19.7 69 +31 +31 очень
душно
1018.0 1007.9
14 15.09 СВ 7 15 км н/о +25.8 +19.2 67 +31 +31 очень
душно
1017.7 1007.6
15 15.09 СВ 5 15 км н/о +26.1 +18.5 63 +31 +31 очень
душно
1017.4 1007.3
16 15.09 В 3 18 км н/о +26.1 +17.7 60 +30 +30 душно 1017.2 1007.1
17 15.09 Ю 5 12 км н/о +23.9 +19.4 76 +29 +29 душно 1017.6 1007.4
18 15.09 Ю 5 10 км н/о +23.0 +20.5 86 +30 +30 очень
душно
1017.5 1007.3 +26.6
19 15.09 Ю 4 7000 м н/о +21.8 +19.9 89 +27 +27 душно 1017.8 1007.6
20 15.09 Ю 4 3100 м н/о +20.8 +20.0 95 +26 +26 душно 1018.6 1008.3
21 15.09 Ю 3 500 м н/о +20.2 +19.5 96 +24 +24 комфорт 1019.1 1008.8
22 15.09 Ю 3 500 м н/о +19.9 +19.4 97 +23 +23 комфорт 1019.2 1008.9
23 15.09 Ю 3 300 м н/о +19.6 +19.3 98 +23 +23 комфорт 1019.3 1009.0
00 16.09 ЮЗ 1 600 м н/о +19.2 +18.9 98 +22 +22 комфорт 1019.1 1008.8
01 16.09 Ю 4 200 м н/о +18.8 +18.5 98 +20 +20 1018.8 1008.5
02 16.09 Ю 4 600 м н/о +18.4 +18.2 99 +19 +19 1018.6 1008.2
03 16.09 ЮЗ 3 500 м н/о +18.4 +18.2 99 +19 +19 1018.5 1008.1
04 16.09 ЮЗ 5 1700 м н/о +18.1 +17.9 99 +18 +18 1018.4 1008.0
05 16.09 Ю 5 400 м н/о +17.9 +17.7 99 +17 +17 1018.4 1008.0
06 16.09 Ю 3 200 м н/о +18.1 +18.1 100 +18 +18 1018.7 1008.3 +17.7
07 16.09 ЮЗ 3 300 м н/о +18.1 +18.1 100 +18 +18 1019.0 1008.6
08 16.09 Ю 4 500 м н/о +18.6 +18.6 100 +20 +20 1019.4 1009.0
09 16.09 ЮВ 4 300 м н/о +18.8 +18.8 100 +20 +20 1019.8 1009.4
10 16.09 Ю 2 2400 м н/о +19.1 +18.8 98 +22 +22 комфорт 1019.9 1009.6
11 16.09 ЮВ 5 9000 м н/о +19.8 +18.5 92 +22 +22 комфорт 1019.8 1009.5
12 16.09 Ю 7 14 км н/о +21.3 +18.7 85 +26 +26 душно 1019.2 1008.9
13 16.09 Ю 7 17 км н/о +22.0 +18.8 82 +27 +27 душно 1018.6 1008.4
14 16.09 Ю 7 17 км н/о +23.5 +18.8 75 +28 +28 душно 1017.7 1007.5
15 16.09 Ю 7 17 км н/о +23.9 +18.8 73 +29 +29 душно 1017.5 1007.3
16 16.09 Ю 7 18 км н/о +23.3 +18.8 76 +30 +30 очень
душно
1017.4 1007.2
17 16.09 Ю 5 16 км н/о +22.4 +19.2 82 +28 +28 душно 1017.0 1006.8
18 16.09 Ю 4 12 км н/о +21.4 +19.7 90 +26 +26 душно 1017.3 1007.1 +24.2
19 16.09 Ю 4 11 км н/о +20.7 +19.5 93 +25 +25 комфорт 1017.6 1007.3
20 16.09 Ю 6 13 км н/о +20.7 +19.5 93 +25 +25 комфорт 1017.7 1007.4
21 16.09 Ю 5 12 км н/о +20.7 +19.5 93 +25 +25 комфорт 1018.0 1007.7
22 16.09 Ю 5 9000 м н/о +20.9 +19.6 92 +26 +26 душно 1018.2 1007.9
23 16.09 Ю 4 8000 м н/о +20.7 +19.5 93 +25 +25 комфорт 1018.2 1007.9
00 17.09 Ю 3 7000 м н/о +20.7 +19.5 93 +25 +25 комфорт 1017.5 1007.2
01 17.09 СЗ 2 6000 м н/о +20.7 +19.7 94 +26 +26 душно 1016.9 1006.6
02 17.09 Ю 3 6000 м н/о +20.7 +19.7 94 +26 +26 душно 1016.3 1006.1
03 17.09 Ю 4 н/о н/о +20.3 +19.5 95 +24 +24 комфорт 1016.0 1005.7
04 17.09 Ю 5 н/о в посл. час морось н/о +20.2 +19.4 95 +24 +24 комфорт 1015.8 1005.5 0.0
05 17.09 ЮЗ 3 6000 м в посл. час морось н/о +20.4 +19.9 97 +25 +25 комфорт 1016.0 1005.7 0.0
06 17.09 Ю 3 3100 м слаб. морось н/о +20.7 +20.0 96 +26 +26 душно 1015.8 1005.6 +20.2 0.0
07 17.09 ЮЗ 3 н/о н/о +20.8 +20.1 96 +26 +26 душно 1016.0 1005.8
08 17.09 Ю 4 н/о н/о +21.1 +20.3 95 +26 +26 душно 1016.2 1006.0
09 17.09 ЮВ 4 7000 м н/о +22.5 +20.6 89 +29 +29 очень
душно
1016.7 1006.5
10 17.09 Ю 4 7000 м н/о +22.6 +20.5 88 +29 +29 очень
душно
1016.9 1006.7
11 17.09 ЮВ 4 8000 м н/о +23.5 +20.8 85 +29 +29 душно 1016.7 1006.6
12 17.09 В 5 9000 м н/о +24.2 +20.7 81 +30 +30 очень
душно
1016.3 1006.2
13 17.09 СВ 6 10 км н/о +23.7 +20.0 80 +29 +29 душно 1015.9 1005.8
14 17.09 В 6 11 км н/о +24.9 +20.2 75 +31 +31 очень
душно
1015.5 1005.4
15 17.09 В 6 11 км н/о +25.2 +20.5 75 +31 +31 очень
душно
1015.2 1005.1
16 17.09 ЮВ 5 8000 м н/о +24.1 +20.6 81 +30 +30 очень
душно
1015.1 1005.0
17 17.09 ЮВ 4 9000 м н/о +23.5 +20.8 85 +29 +29 душно 1014.8 1004.7
18 17.09 В 5 9000 м н/о +23.2 +20.5 85 +31 +31 очень
душно
1014.6 1004.5 +25.3
19 17.09 Ю 4 7000 м н/о +22.5 +21.0 91 +29 +29 очень
душно
1014.6 1004.4
20 17.09 Ю 4 6000 м н/о +22.4 +21.0 92 +29 +29 очень
душно
1014.9 1004.7
21 17.09 ЮЗ 4 н/о н/о +22.1 +20.9 93 +29 +29 очень
душно
1015.5 1005.3
22 17.09 Ю 4 н/о н/о +22.1 +21.1 94 +29 +29 очень
душно
1015.6 1005.4
23 17.09 Ю 3 3900 м н/о +22.0 +21.2 95 +28 +28 душно 1015.8 1005.6
00 18.09 Ю 2 2700 м н/о +21.6 +20.9 96 +27 +27 душно 1015.8 1005.6
01 18.09 Ю 3 500 м н/о +20.9 +20.4 97 +26 +26 душно 1015.5 1005.3
02 18.09 ЮЗ 2 6000 м н/о +20.4 +19.9 97 +25 +25 комфорт 1015.4 1005.2
03 18.09 ЮВ 1 7000 м н/о +20.9 +20.1 95 +27 +27 душно 1015.2 1005.0
04 18.09 ЮЗ 2 7000 м н/о +21.0 +20.2 95 +27 +27 душно 1014.9 1004.7
05 18.09 С 2 н/о н/о +20.7 +19.9 95 +26 +26 душно 1015.0 1004.8
06 18.09 З 1 6000 м н/о +20.8 +20.0 95 +27 +27 душно 1015.4 1005.2 +20.4
07 18.09 З 1 6000 м н/о +21.1 +20.3 95 +26 +26 душно 1016.0 1005.8
08 18.09 З 2 12 км н/о +22.3 +19.1 82 +28 +28 душно 1016.4 1006.2
09 18.09 ЮЗ 3 14 км н/о +24.3 +18.5 70 +29 +29 душно 1016.5 1006.4
12 18.09 ЮЗ 5 18 км н/о +27.5 +17.9 56 +32 +32 очень
душно
1016.1 1006.1
13 18.09 ЮЗ 5 20 км н/о +27.7 +16.6 51 +31 +31 душно 1015.9 1005.9
14 18.09 ЮЗ 6 20 км н/о +28.2 +15.5 46 +31 +31 душно 1015.4 1005.4
15 18.09 З 4 19 км н/о +28.7 +15.2 44 +31 +31 жарко 1015.1 1005.1
16 18.09 ЮЗ 2 20 км н/о +28.7 +13.8 40 +31 +31 жарко 1014.8 1004.8
17 18.09 СЗ 3 20 км н/о +27.8 +14.8 45 +30 +30 жарко 1014.9 1004.9
18 18.09 З 3 20 км н/о +25.7 +12.5 44 +27 +27 жарко 1015.1 1005.0 +28.8
19 18.09 Ю 1 20 км н/о +23.3 +11.7 48 +26 +26 жарко 1015.6 1005.4
20 18.09 В 1 20 км н/о +22.0 +13.1 57 +25 +25 комфорт 1015.9 1005.7
21 18.09 Ю 1 20 км н/о +21.1 +12.5 58 +23 +23 комфорт 1016.2 1005.9

 

Местоположение метеостанции Сеута (Испания): широта 35.90 долгота -5.34 высота над уровнем моря 2 м.

В архиве по умолчанию представлена погода в Сеуте за последнюю неделю. Архивные данные за месяц целиком и за предыдущие месяцы, начиная с января 2011 года, Вы можете получить, выбрав интересующий диапазон дат из раскрывающегося списка и нажав кнопку "Ввод!".


*Определитесь, кто Вы:
робот инопланетянин человек

Внимание! Время в таблицах - всемирное. Для получения местного времени необходимо прибавить поправку, которая равна 0 ч.

Смотрите также архив погоды в соседних городах и на ближайших метеорологических станциях:

Погода в Тарифе (Испания) (27 км)
Погода Гибралтаре (Гибралтар) (28 км)
Погода в Тетуане (Марокко) (36 км)
Погода в Танжер порту (Марокко) (44 км)
Погода в Танжере (Марокко) (54 км)
Погода в Эстепоне (Испания) (60 км)
Погода в Вехер-де-ла-Фронтера (Испания) (68 км)
Погода в Шавене (Марокко) (92 км)
Погода в Грасалеме (Испания) (96 км)
Погода в Фуэнхироле (Испания) (96 км)

Пояснения к столбцам:

Ветер - указаны скорость ветра в м/с - средняя за 10 мин, порывы в срок и между сроками (в фигурных скобках) и направление, откуда дует ветер: С - северный, СВ - северо-восточный, В - восточный, ЮВ - юго-восточный, Ю - южный, ЮЗ - юго-западный, З - западный, СЗ - северо-западный.
Видимость - горизонтальная дальность видимости в метрах или километрах. При видимости от 1 до 10 км при отсутствии осадков обычно наблюдается дымка, при ухудшении видимости до 1 км и менее - туман. В сухую погоду видимость может ухудшаться дымом, пылью или мглою.
Явления - указаны атмосферные явления, наблюдавшиеся в срок или в последний час перед сроком; фигурными скобками обозначены явления, наблюдавшиеся между сроками (за 1-3 часа до срока); квадратными скобками обозначены град или гололедные отложения с указанием их диаметра в мм.
Облачность - указаны через наклонную черту общая и нижняя облачность в баллах и высота нижней границы облаков в метрах; квадратными скобками обозначены формы облаков: Ci - перистые, Cs - перисто-слоистые, Cc - перисто-кучевые, Ac - высококучевые, As - высокослоистые, Sc - слоисто-кучевые, Ns - слоисто-дождевые, Cu - кучевые, Cb - кучево-дождевые. Подробнее классификацию облаков см. в Атласе облаков (PDF).
T - Температура воздуха - температура, измеренная на высоте 2 м над землей.
Td - Температура точки росы - температура, при понижении до которой содержащийся в воздухе водяной пар достигнет насыщения.
f - Относительная влажность воздуха - влажноcть воздуха, измеренная на высоте 2 м над землей.
Te - Эффективная температура - температура, которую ощущает одетый по сезону человек в тени. Характеристика душности погоды. При расчете учитывается влияние влажности воздуха и скорости ветра на теплоощущения человека.
Tes - Эффективная температура на солнце - температура, которую ощущает человек, с поправкой на солнечный нагрев. Характеристика знойности погоды. Зависит от высоты солнца над горизонтом, облачности и скорости ветра. Ночью, в пасмурную погоду, а также при ветре 12 м/с и более поправка равна нулю.
P - Атмосферное давление - приведенное к уровню моря атмосферное давление.
Po - Атмосферное давление - измеренное на уровне метеостанции атмосферное давление.
Tmin - Минимальная температура - минимум температуры воздуха на высоте 2 м над землей.
Tmax - Максимальная температура - максимум температуры воздуха на высоте 2 м над землей.
R - Количество осадков - Количество выпавших осадков за период времени, мм. При наведении курсора мыши на число - период времени, за который выпало указанное количество осадков.
R24 - Количество осадков - Количество выпавших осадков за 24 часа, мм.
S - Снежный покров - Высота снежного покрова, см. При наведении курсора мыши на число - состояние снежного покрова и степень покрытия местности в баллах.